Regional Weather Roundup
Issued by NWS Wakefield, VA

Home | Current Version | Previous Version | Text Only | Print | Product List | Glossary Off
Versions: 1 2 3 4 5 6 7 8 9 10 11 12 13 14 15 16 17 18 19 20 21 22 23 24 25 26 27 28 29 30 31 32 33 34 35 36 37 38 39 40 41 42 43 44 45 46 47 48

000
ASUS41 KAKQ 190910
RWRAKQ

REGIONAL WEATHER ROUNDUP
NATIONAL WEATHER SERVICE WAKEFIELD VA
400 AM EST FRI DEC 19 2014

Note: "fair" indicates few or no clouds below 12,000 feet with no
significant weather and/or obstructions to visibility. * = Denotes
station may not report precipitation (e.g., rain,snow,etc.),
thunder or fog.

VAZ042-051-052>054-056-191000-
NORTHERN VIRGINIA

CITY           SKY/WX    TMP DP  RH WIND       PRES   REMARKS
WASH NATIONAL  CLOUDY    38  21  50 NW9       30.13F
DULLES         CLOUDY    32  22  66 NW8       30.12S
FORT BELVOIR   CLOUDY    35  22  59 NW7       30.13F
QUANTICO       MOCLDY    35  22  58 N7        30.13F
FREDERICKSBRG* MOCLDY    36  25  64 N3        30.12S
STAFFORD*      PTCLDY    32  22  65 N3        30.15F
WARRENTON      MOCLDY    32  28  86 N3        30.11F
CULPEPER*      PTCLDY    30  25  80 CALM      30.12S
MANASSAS*      CLOUDY    34  25  69 NW8       30.13S
LEESBURG*      CLOUDY    34  27  75 NW8       30.12F
WINCHESTER     CLOUDY    34  19  55 NW6       30.11S
FRONT ROYAL*   CLOUDY    32  25  74 CALM      30.10F
LURAY*         PTSUNNY   32  28  86 CALM      30.10S
$$

VAZ048-049-060>072-079>083-191000-
CENTRAL AND SOUTH CENTRAL VIRGINIA

CITY           SKY/WX    TMP DP  RH WIND       PRES   REMARKS
RICHMOND       CLOUDY    35  24  64 CALM      30.11F
CHESTERFIELD*  CLOUDY    34  18  51 CALM      30.12F
PETERSBURG*    PTCLDY    28  28  96 CALM      30.13R
HANOVER        CLOUDY    32  26  78 CALM      30.13F
TAPPAHANNOCK*  CLOUDY    34  22  61 CALM      30.12F
QUINTON*       CLOUDY    31  27  84 W7        30.11F
CHARLOTTSVILLE PTCLDY    30  24  78 CALM      30.10S
GORDONSVILLE*  CLOUDY    31  25  78 CALM      30.11S
ORANGE*        CLOUDY    32  28  86 CALM      30.12S
LOUISA*        MOCLDY    28  27  93 CALM      30.10R
BUMPASS*       CLOUDY    33  23  66 N3        30.11S
FARMVILLE*     PTCLDY    32  25  74 CALM      30.11S
CREWE*         MOSUNNY   27  25  92 CALM      30.10F
FORT PICKETT*  SUNNY     30  24  79 CALM      30.10F
CHASE CITY*    CLOUDY    35  29  80 CALM      30.10S
CLARKSVILLE*   CLOUDY    36  30  80 CALM      30.09F
SOUTH HILL*    CLEAR     29  25  86 CALM      30.16S
LAWRENCEVILLE* MOSUNNY   32  26  77 CALM      30.11R
EMPORIA*       PTCLDY    32  27  80 CALM      30.13R
$$

VAZ088>098-191000-
SOUTHEAST VIRGINIA

CITY           SKY/WX    TMP DP  RH WIND       PRES   REMARKS
NORFOLK        CLEAR     37  29  72 N3        30.10S
VIRGINIA BEACH PTCLDY    33  28  81 CALM      30.09S
NORFOLK NAVAL  PTCLDY    39  28  64 N8        30.11F
WEST POINT*    PTCLDY    34  26  71 CALM      30.13S
SALUDA*        CLOUDY    36  25  64 N7        30.11S
NEWPORT NEWS   MOCLDY    31  26  82 NW3       30.11F
LANGLEY AFB    CLOUDY    37  28  70 N6        30.11S
FORT EUSTIS    MOCLDY    33  28  81 N2        30.10S
WILLIAMSBURG*  PTCLDY    32  28  86 CALM      30.12S
HR EXEC AP*    SUNNY     25  21  86 CALM      30.13S
FRANKLIN*      MOCLDY    28  27  93 CALM      30.11S
WAKEFIELD      MOCLDY    30  26  85 CALM      30.12S
$$

VAZ020-022-025-037-045-191000-
WEST CENTRAL AND SOUTHWEST VIRGINIA

CITY           SKY/WX    TMP DP  RH WIND       PRES   REMARKS
STAUNTON*      PTCLDY    29  23  81 CALM      30.10S
WAYNESBORO*    PTSUNNY   29  23  76 CALM      30.07S
HOT SPRINGS VA PTCLDY    21  21 100 W10       29.96S WCI  10
LYNCHBURG      CLEAR     28  24  85 CALM      30.11R
DANVILLE       CLOUDY    42  21  43 W7        30.11S
SOUTH BOSTON*  CLOUDY    35  28  73 W5        30.11S
MARTINSVILLE   CLEAR     39  21  48 N7        30.13S
ROANOKE        CLEAR     35  19  52 NW10      30.14S
BLACKSBURG     CLOUDY    29  23  76 W7        30.12F
DUBLIN*        CLOUDY    33  23  66 W8        30.11F
MARION*        CLOUDY    35  18  50 W15       30.11S
HILLSVILLE*    CLOUDY    32  24  71 N6        30.07F
RICHLANDS*     CLOUDY    30  23  75 CALM      30.11S
WISE*          CLOUDY    32  27  80 N3        30.12S
ABINGDON*      CLOUDY    37  24  60 N8        30.12F
$$

MDZ021>025-VAZ099-100-191000-
SOUTHERN MARYLAND AND THE DELMARVA PENINSULA

CITY           SKY/WX    TMP DP  RH WIND       PRES   REMARKS
PATUXENT RIVER CLOUDY    36  23  59 NW14G21   30.10F
BAY BRIDGE APT   N/A     36  25  64 W9        30.10F
LEONARDTOWN    CLOUDY    34  23  64 NW3       30.11F
DOVER          CLOUDY    35  26  68 W10       30.05F
GEORGETOWN     CLOUDY    36  25  64 W7        30.07F
EASTON         CLOUDY    37  27  69 NW9       30.13S
CAMBRIDGE      CLOUDY    37  27  65 NW8       30.09F
SALISBURY      CLOUDY    38  25  59 NW9       30.08F
OCEAN CITY     CLOUDY    35  26  69 NW6       30.07F
WALLOPS ISLAND CLOUDY    34  27  75 NW6       30.09F
ACCOMACK*      MOCLDY    34  27  75 NW6       30.09F
$$

NCZ012>017-030>032-191000-
NORTH CENTRAL AND EASTERN NORTH CAROLINA

CITY           SKY/WX    TMP DP  RH WIND       PRES   REMARKS
ROANOKE RAPIDS SUNNY     32  28  86 N3        30.11S
RALEIGH        MOCLDY    41  29  62 CALM      30.11S
ELIZABETH CITY CLEAR     40  31  70 N5        30.10F
AHOSKIE*       CLEAR     29  27  94 CALM      30.11S
EDENTON*         N/A     34  30  86 CALM      30.10S
CURRITUCK*     CLEAR     35  31  87 CALM      30.10F
KILL DEVIL HLS PTCLDY    40  33  74 N3        30.08S
MANTEO         MOCLDY    39  37  92 NW3       30.09S
CAPE HATTERAS  PTCLDY    35  34  96 NW3       30.08S
TARBORO*       NOT AVBL
GOLDSBORO      PTCLDY    37  36  98 CALM      30.09R
WASHINGTON     CLOUDY    35  32  90 CALM      30.11R
GREENVILLE     CLOUDY    32  32 100 CALM      30.12S
NEW BERN       CLOUDY    36  33  89 CALM      30.11S
WILMINGTON     MOCLDY    36  34  92 CALM      30.09S
$$

VAZ048-191000-
ELSEWHERE

CITY           SKY/WX    TMP DP  RH WIND       PRES   REMARKS
HARRISBURG PA  CLOUDY    34  25  69 W13       30.06F WCI  25
BALTIMORE      CLOUDY    34  23  64 W8        30.10S
ANNAPOLIS      CLOUDY    35  23  61 W8        30.10F
ANDREWS AFB    CLOUDY    34  23  64 NW12      30.10F
PHILADELPHIA   CLOUDY    37  25  61 W9        30.05S
HENDERSON NC   CLOUDY    39  25  57 NW3       30.09F
GREENSBORO     CLOUDY    42  25  50 N3        30.09S
ROCKY MOUNT    CLOUDY    37  35  92 CALM      30.11S
$$

VAZ100-191000-
MARINE

STATION/POSITION TIME  TEMP    WIND        PRES    WAVE   SWELL
                       AIR SEA DIR/SP/G            HT/PER HT/PER
                 (UTC) (F)     (DEG/KT/KT) (MB)    (FT/S) (FT/S)
CAPE MAY NJ      0900   37 42  300/ 12/ 20 1017.3F
LEWES DE         0900   36 42  290/ 12/ 15 1018.0F
15NM E FENWICK I 0900   38 47              1017.1F   3/ 5
OCEAN-CITY-INLET 0900   36 45  310/  9/ 12 1017.8F
WACHAPREAGUE VA  0900   34 43   CALM  /  1 1018.8F
THOMAS POINT MD  0900   35 41  290/ 14/ 16 1020.4F
GOOSES REEF MD   0900   36     VRB 14/ 16  1018.5F
COVE POINT MD    0900   35     340/ 15/ 16 1019.1F
SOLOMONS ISLAND  0900      44                N/A
BISHOPS HEAD MD  0900   36 39  320/  9/ 11 1018.7S
PINEY POINT MD   0900          340/ 13/ 16   N/A
POTOMAC MD       0900   37     340/ 10/ 14 1018.5F
CAMBRIDGE MD     0900   36 41  310/  8/ 13 1019.0F
LEWISETTA VA     0900   36 43  330/  6/  8 1019.1F
RAPPAHANNOCK LGT 0900          320/ 10/ 11 1019.5S
STINGRAY PT      0900   37     330/ 10/ 12 1019.9R
YORK RVR RNG VA  0900   37     330/  7/  8 1019.1R
YORKTOWN VA      0900   37 45  330/  7/  8 1019.3R
JAMESTOWN VA     0900   33      20/  4/  6   N/A
DOMINION TERM VA 0900   38      CALM  /  2 1019.4S
KIPTOPEKE VA     0800      50   10/  5/  7   N/A
CHES BAY BRIDGE  0900   40 46  350/  9/ 11 1018.7F
CAPE HENRY VA    0900   40     340/ 10/ 12 1017.8S
CHESAPEAKE LGHT  0800   40     340/  9/ 10 1019.8F
WILLOUBY STN VA  0900   38     340/  9/ 11 1019.7S
S CRANEY ISL VA  0900          360/  6/  8 1019.1F
CAPE HENRY BUOY  0900      48                N/A     2/ 4
1ST LANDING BUOY 0900   40     340/ 10/ 12 1018.7F
CAPE CHARLES BUO 0900      48                N/A     2/10   2/10
64NM E OF VA BCH 0900   44 55  320/ 12/ 14 1017.9F   3/ 5   2/11
DUCK PIER NC     0900   43 47   10/  7/  8 1018.0F
44100 DUCK FRF   0900      51                N/A     2/ 5
44056 DUCK FRF   0900      47                N/A     2/ 6
OREGON INLET NC  0900   43 50  300/  5/  6 1018.7S
HATTERAS NC      0900   46 54  300/  5/  6 1018.8F
DIAMOND SHLS NC  0900   48                 1018.9F   3/ 9
CAPE LOOKOUT NC  0800   48     350/  4/  5 1018.8F
$$


USA.gov is the U.S. government's official web portal to all federal, state and local government web resources and services.